SCOUT A DEB, 2702

Orbit data source: Space-Track

SCOUT A DEB, 2702 is space debris in LEO originally from a launch on Thu, 18 Aug 1966 UTC launched from the Air Force Western Test Range (AFWTR). Debris objects in space refer to the collection of defunct objects orbiting the Earth. Examples of debris include non-operational satellites, rocket bodies, and fragments generated from explosions, collisions, or faulty payload assembly.

Loading next visibility...
Identifier
2702, 1966-076D
Orbit
LEO
Country
Flag of USUS
Related business
Manufacturer
Unknown
Mission
Spacecraft
Bus & Motor
Unknown
Mass
Unknown
Launch date (UTC)
1966-08-18 (59 years ago)
Launch vehicle
Unknown
Launch site
Air Force Western Test Range (AFWTR)
Object type
Payload
Rocket body
Debris
Shape & HBR
Unknown shape, 0.1 m
Radar Cross Section
Small (<0.1 m²)

Expand to show TLE details & history
Last TLE update: 1 week ago

TLE from 1 week ago
0 SCOUT A DEB
1 02702U 66076D   25301.42924763  .00000215  00000-0  38419-3 0  9990
2 02702  88.5590 290.7090 0086880 207.6452 285.8535 13.36506241865377
Epoch: 2025-10-28T10:18Z
TLE epoch observation values (Epoch: 2025-10-28T10:18:06.995Z)
Latitude
47.53349°
Longitude
-82.4039°
Altitude
1,112.48 km
Speed
7.309 km/s
True Right ascension
07h 16m 34s
True Declination
47° 22' 13"
Sunlit
Object was in daylight at epoch
Visualization orbit readout
Latitude
Unknown
Longitude
Unknown
Altitude
Unknown
Speed
Unknown
Apparent Right ascension
Unknown
Apparent Declination
Unknown
Sunlit
N/A
Visualization observer readout
Local Sidereal Time
04:42:50
Azimuth
Unknown
Elevation
Unknown
Doppler factor
Unknown
Orbital elements
Apogee altitude
1,184.535 km
Perigee altitude
1,054.258 km
Semi-major axis
7,497.534 km
Eccentricity
0.00869
Inclination
88.559°
RAAN
290.709°
Arg. of periapsis
207.6452°
True anomaly
284.89299°
Mean anomaly
285.8535°
Eccentric anomaly
285.37353°
Mean motion
3.34322 °/min
Orbital period
107.68 mins
BSTAR
0.00038419
Loading maneuver chart data...
Computing Atmospheric mass density...
Loading historical data...
Loading historical data...
Loading historical data...
Loading historical data...
Loading historical data...
Loading historical data...
Loading historical data...

Documentation

Showing up to 5 results
|